OneWeb SL0145

operational
NORAD ID: 47260 Int'l Des: 2020-100 Owner: ONEWEB Country: UK Constellation: oneweb
LEOCIRCULARPOLARONEWEB_TYPE

Über OneWeb SL0145

Beschreibung wird geladen...

Live-Position

3D-Globus wird geladen...

Nächste Überflüge

Höhenverlauf

Altitude vs Time

uPlot chart will show altitude changes over time

Zweizeiliger Elementsatz

1 47260U 20100C 25304.68605969 -.00000153 00000-0 -46133-3 0 9996
2 47260 87.8971 36.0306 0001935 109.9717 250.1620 13.12444017234755
Epoch: 31. Okt. 2025 • Age: 22 hours

Aktueller Status

Höhe 1243.7 km
Geschwindigkeit 7.23 km/s
Subsatellitenpunkt -83.57°S, 125.91°E
Startdatum 18. Dez. 2020
Alter 4.8 years
Typ internet

Technische Details

Klassifizierung Payload
Masse 148.00 kg
Trockenmasse 140.00 kg
Gesamtmasse 148.00 kg
Länge 1.30 m
Durchmesser 1.00 m
Spannweite 5.00 m
Form Trapezoid+2 pan
Hersteller ONEWUS
Bus-Typ ARROW
Phasenstatus In Orbit
Besitzer/Staat ONEWEB/UK

Große Konstellationen

Loading constellations...